Погода в Носовке

Украина / Черниговская область     50°55′49″N   31°34′53″E
темп.,
°C
ветер,
м/с
пор.,
м/с
влажн.,
%
обл.,
%
осадки,
мм/ч
давл.,
гПа
погр.,
м
31 июля, сб
сб3100:00+19зюз22660 0.0 101011
03:00+18юз33710 0.0 101039
06:00+18юз35794 0.0 101076
09:00+24з35520 0.0 1010405
12:00+29з45394 0.0 10101832
15:00+30зюз44334 0.0 10102485
18:00+30юз23355 0.0 10091943
21:00+25ююв224595 0.0 101019
1 августа, вс
вс100:00+22ююз356018 0.0 101072
03:00+21ю236897 0.0 101030
06:00+20ююв35685 0.0 101080
09:00+26ю36510 0.0 1010410
12:00+32ююз68379 0.0 10092072
15:00+32ююз683969 0.0 10082809
18:00+23св238594 5.2 100969
21:00+21юв22890 5.8 100933
2 августа, пн
пн200:00+19ю229320 0.0 100933
03:00+19ююз229199 0.0 100832
06:00+19ю3490100 0.0 100876
09:00+25ююв4666100 0.0 1006311
12:00+31ююз79425 0.0 10061496
15:00+24зюз111685100 4.6 1005816
18:00+25юз4974100 3.3 1005407
21:00+18зюз48820 6.7 1007111
3 августа, вт
вт300:00+17зсз398923 0.0 1009232
03:00+15зсз499597 0.0 1011286
06:00+14зсз38945 0.0 1012212
09:00+19зсз46725 0.0 1013535
12:00+24сз44505 0.0 10131535
15:00+21з3662100 0.1 1013183
18:00+23зсз35517 0.0 1013854
21:00+20зсз3559100 0.0 1014108
4 августа, ср
ср400:00+18сз355820 0.0 101694
03:00+16сз22610 0.0 101621
06:00+15з126860 0.0 101711
09:00+20зюз235519 0.0 1018271
12:00+24зюз3445100 0.0 10171719
15:00+26зюз45385 0.0 10162304
18:00+25юз014442 0.0 1016754
21:00+22ю2248100 0.0 101715